Theta_e
308 307 305 305 305 304 306 305 305 305 304 303 302 302 300 300 296 294 294 295 296 300 302 300 302 305 305 305 306 306 307 309 311 311 311 311 313 316 319 317 315 315 316 316 316 315 314 314 314 320 324 325 325 324 323 322 321 320 321 323 327 326 323 319 317 323 325 326 325 321 320 320 321 320
307 307 305 304 303 304 304 303 304 303 303 301 301 301 301 300 297 296 293 294 297 298 300 301 300 303 303 304 305 305 306 311 311 309 309 309 310 311 311 314 315 313 313 313 312 311 312 314 317 322 325 325 323 321 320 318 319 319 322 325 326 322 321 319 319 321 323 323 322 321 320 320 319 319
306 305 303 303 302 303 303 302 302 302 301 300 300 300 300 300 299 297 296 293 296 299 297 299 302 301 302 303 304 305 306 308 309 307 308 309 311 312 311 312 313 314 312 310 313 314 311 310 312 315 321 324 323 322 322 320 319 322 324 322 321 323 321 320 320 322 324 324 323 323 321 321 320 321
306 303 302 302 301 302 301 300 301 300 300 300 299 299 299 299 299 298 296 294 293 298 298 299 300 301 301 303 302 303 304 306 309 307 307 308 311 310 310 312 312 314 314 312 311 313 312 310 312 312 316 319 322 322 322 321 321 322 319 317 318 319 319 319 320 325 325 324 324 324 322 321 321 321
305 303 301 300 301 301 300 299 300 299 299 299 299 299 298 298 298 297 296 294 294 297 299 299 299 300 301 300 301 301 302 303 304 306 306 307 308 309 309 310 310 310 312 312 311 309 309 309 313 315 316 319 321 322 320 320 319 317 315 315 314 315 319 319 317 320 325 324 323 322 321 319 319 320
304 302 300 300 300 301 299 299 298 298 298 297 297 297 298 297 297 298 297 295 294 293 296 297 299 299 300 298 300 300 300 301 303 303 304 306 306 307 307 308 309 309 309 310 310 310 309 308 309 312 311 311 313 315 315 313 313 316 315 310 310 315 317 321 318 317 321 321 321 320 319 319 319 320
302 301 301 299 300 301 299 298 298 298 298 297 297 296 297 297 297 298 298 295 293 293 294 297 296 297 298 298 298 300 300 301 302 301 302 303 305 306 307 308 310 308 307 306 309 310 308 308 307 307 309 309 309 310 312 312 311 311 312 310 309 311 313 314 316 316 319 321 321 319 318 318 319 321
301 300 300 299 299 299 298 297 297 297 297 296 296 296 297 297 297 297 297 297 295 294 293 295 295 297 297 298 299 300 300 300 300 300 301 302 303 304 306 306 306 306 306 306 306 308 309 307 307 306 306 308 309 308 309 311 311 310 310 310 309 309 310 310 311 311 315 319 319 317 317 317 321 323
301 301 299 299 299 298 297 297 296 297 296 296 296 295 296 296 297 297 297 296 296 295 293 294 296 297 297 298 298 299 298 298 299 299 299 300 301 302 303 304 305 306 305 306 307 307 308 307 306 305 306 307 308 307 308 309 310 310 310 310 309 309 309 309 309 310 310 311 312 318 318 317 321 323
301 300 300 299 299 298 296 296 297 297 295 295 295 295 295 296 296 296 296 296 296 295 295 294 294 296 295 296 297 298 298 297 296 297 298 299 300 300 299 301 303 304 305 305 307 306 307 309 307 306 306 306 306 306 307 308 310 310 309 309 309 308 308 308 308 308 308 309 309 313 317 316 318 321
302 300 300 299 299 298 297 297 296 295 294 294 294 295 295 296 296 295 296 295 295 295 294 294 294 294 295 295 294 297 298 297 297 295 295 295 298 299 299 299 301 302 302 303 303 303 304 306 310 310 306 305 307 307 306 307 309 310 309 309 308 308 307 307 307 308 307 308 308 308 309 312 315 321
301 300 300 300 299 299 298 297 296 295 293 294 293 294 295 295 295 295 295 295 294 294 293 293 293 294 293 294 295 296 296 294 295 296 295 293 294 296 298 298 297 299 300 299 301 303 304 305 308 308 308 307 306 307 307 308 309 310 310 308 307 307 306 307 307 307 307 307 307 306 307 307 309 316
300 300 300 300 300 300 302 299 298 297 297 295 293 293 294 295 294 295 295 294 293 293 293 293 294 293 292 292 292 292 292 292 292 294 295 294 295 295 295 296 298 298 297 298 299 300 303 305 309 310 313 316 310 308 307 309 309 308 308 307 307 307 307 306 306 307 307 307 307 306 306 306 307 308
301 300 299 301 302 302 302 299 296 295 295 296 296 294 294 294 294 295 294 293 293 293 292 292 292 291 291 292 293 292 293 294 295 294 294 292 293 293 293 294 296 298 297 297 297 299 303 302 303 307 310 314 316 314 311 311 312 309 306 306 306 306 306 306 306 306 306 306 306 306 306 306 306 305
301 300 299 299 299 300 300 297 295 294 294 294 294 295 296 297 295 295 293 293 293 293 292 292 292 291 291 292 293 293 294 294 294 293 293 292 292 291 290 289 293 297 297 296 296 296 300 301 300 303 305 308 310 316 315 309 307 307 306 305 306 306 306 305 305 305 305 306 306 305 305 305 306 304
300 299 299 298 299 298 299 295 294 294 294 294 293 294 294 295 294 295 294 293 292 292 291 291 292 292 292 292 293 293 293 293 293 293 293 292 291 291 290 290 289 294 297 295 294 294 298 300 300 300 302 305 308 310 312 307 305 305 306 305 305 305 306 305 305 305 305 305 305 304 304 305 305 303
300 298 299 298 299 297 300 297 293 293 293 294 294 295 296 297 296 293 292 293 295 294 292 292 292 293 293 292 293 294 293 294 292 292 292 292 292 292 291 291 291 294 296 294 293 292 295 298 297 297 300 302 305 308 308 308 307 305 305 305 305 305 305 305 305 304 303 304 304 304 304 304 304 304
300 299 297 297 297 296 296 295 293 293 292 292 293 294 295 295 297 295 295 294 294 295 294 293 292 294 295 293 293 295 295 293 292 291 291 292 291 291 291 293 293 295 296 293 292 291 293 296 296 296 298 302 304 308 309 308 306 305 304 304 304 304 304 304 304 304 303 303 303 303 304 303 303 303
300 299 299 298 296 294 294 295 293 292 292 292 293 293 293 294 295 295 295 295 295 295 295 294 295 295 295 295 295 294 295 294 294 294 293 293 293 293 294 294 294 294 296 295 293 289 293 296 296 297 299 302 304 308 307 307 306 305 304 303 304 304 304 304 303 303 303 303 303 303 302 302 302 302
301 300 299 297 295 294 293 294 292 292 292 292 292 292 292 293 294 295 297 295 294 295 294 294 295 295 295 294 294 294 294 294 295 295 295 294 293 291 290 289 291 292 295 296 294 292 293 297 297 298 301 303 303 307 311 309 307 305 304 303 303 303 303 303 303 303 303 302 302 303 302 302 301 301
301 301 298 298 296 295 293 293 290 291 292 292 292 292 292 293 293 293 295 295 294 294 293 293 292 292 293 293 293 293 293 294 295 294 292 290 291 289 288 289 289 290 293 295 296 295 294 297 298 298 301 302 302 306 310 315 309 306 305 304 303 303 303 303 303 303 303 302 302 302 302 301 301 302
300 298 303 298 296 294 294 292 291 291 293 292 292 292 291 291 292 292 294 295 295 294 294 294 293 293 293 294 294 294 294 293 294 293 289 291 291 289 289 287 289 290 292 294 297 294 294 297 299 299 301 302 304 306 310 314 316 306 304 303 303 303 303 302 302 302 303 302 302 302 301 301 301 305
298 300 299 298 296 295 294 291 291 291 292 291 292 291 291 291 291 292 293 292 292 293 293 294 295 295 295 296 295 296 294 294 296 294 293 293 291 289 289 289 289 287 289 293 297 292 293 294 297 298 298 298 304 311 313 316 319 311 309 309 306 303 302 302 302 302 302 302 302 302 301 301 301 306
297 297 297 298 293 292 292 291 291 291 291 291 292 292 291 291 290 293 292 293 293 293 294 293 294 294 294 294 294 294 294 295 296 294 294 293 292 290 289 289 289 287 288 293 297 294 296 298 299 304 303 301 301 310 317 319 320 314 312 310 307 304 302 302 302 301 301 301 301 301 301 301 301 307
295 295 295 296 295 292 292 291 291 291 291 291 292 292 293 293 293 292 291 292 295 293 293 293 293 293 293 293 293 294 294 294 294 294 294 294 294 292 290 289 289 289 291 294 295 295 293 295 295 298 300 301 301 302 309 317 319 314 311 311 310 309 306 306 304 306 301 300 300 300 300 300 300 305
295 295 294 295 295 292 292 291 291 291 291 290 293 294 292 291 290 291 293 293 293 292 292 292 292 292 292 292 292 293 293 293 294 294 294 293 293 294 292 291 289 288 290 295 295 296 295 294 296 296 298 300 303 306 306 311 314 313 312 312 312 311 308 307 306 306 306 305 304 301 302 299 300 301
294 294 294 295 295 292 291 291 291 291 290 291 293 291 290 290 290 291 293 293 292 291 291 291 291 291 291 291 291 292 292 293 294 294 294 294 294 293 293 293 293 292 294 296 299 298 297 296 298 298 298 300 299 300 302 308 309 311 311 310 310 311 310 309 306 306 307 305 305 301 300 299 298 299
294 293 294 294 291 290 291 291 291 290 290 292 291 290 290 290 292 294 293 291 291 291 290 290 290 290 291 291 291 292 293 294 294 294 294 294 293 292 292 292 294 296 297 298 301 300 300 298 298 300 301 300 299 300 302 310 308 309 308 309 310 310 309 308 307 306 306 306 305 304 302 301 301 301
294 292 291 290 291 291 291 291 290 291 293 291 290 291 291 295 294 293 292 291 291 290 289 289 290 290 291 291 292 294 294 295 295 294 294 293 292 292 292 292 293 294 296 297 299 297 297 300 301 301 302 302 301 302 303 307 308 308 308 306 305 306 306 308 307 306 304 305 304 303 302 302 302 302
291 291 291 291 291 292 293 295 294 293 294 291 291 292 293 294 293 293 292 291 290 289 289 289 289 290 291 292 293 294 295 294 293 293 292 291 289 290 289 288 290 292 294 295 297 297 295 294 294 301 306 307 306 305 308 308 306 308 305 307 305 304 305 306 306 305 303 303 303 303 303 304 303 302
293 292 293 292 291 291 291 291 292 292 293 293 294 293 293 293 293 292 292 291 290 290 289 289 290 291 291 292 293 293 293 293 294 294 292 290 288 288 288 288 287 288 291 293 295 297 295 293 292 292 294 296 298 300 303 306 304 304 305 305 305 301 303 305 305 304 304 303 303 302 302 303 302 302
292 292 292 293 296 296 296 294 293 293 293 293 292 292 292 292 293 293 293 293 291 290 290 290 291 291 291 291 291 293 293 293 293 294 292 291 289 288 288 287 286 287 288 290 292 293 295 295 293 292 290 290 289 293 299 299 299 301 301 301 301 303 304 303 303 303 304 303 301 301 301 302 302 303
291 292 293 293 293 293 290 291 292 292 292 291 292 293 292 292 292 292 291 290 290 290 290 289 289 289 290 290 291 292 292 292 293 294 293 292 290 289 288 287 286 286 286 287 288 290 292 294 296 293 291 290 289 289 290 291 295 297 297 298 298 298 300 301 302 302 303 301 300 300 299 301 302 303
289 290 289 291 290 290 291 289 288 289 290 290 290 290 290 291 291 290 290 290 290 289 288 289 289 289 289 289 290 291 291 292 293 293 291 292 291 289 287 286 286 287 286 286 287 287 289 291 292 295 293 292 291 290 288 287 289 294 295 296 296 295 296 299 300 301 301 300 299 298 298 298 300 302
288 288 288 289 289 289 290 288 288 288 288 288 288 289 289 290 289 288 289 289 289 288 288 288 288 288 289 289 289 289 290 290 292 293 292 292 291 290 288 286 286 286 286 286 286 287 288 288 289 289 289 289 289 290 292 289 287 290 293 293 293 293 292 294 295 297 298 298 298 294 293 294 295 298
288 289 289 289 288 289 288 287 288 289 288 288 288 288 288 288 288 288 288 289 290 288 288 288 288 288 288 288 289 289 290 289 291 291 291 291 290 290 289 288 287 287 287 287 287 288 288 287 287 286 284 284 284 282 283 290 290 288 289 288 290 291 291 291 291 292 293 293 294 293 289 289 291 295
289 290 291 291 292 290 288 289 289 290 290 289 288 288 288 288 289 290 290 289 289 288 288 288 288 288 288 288 289 289 290 289 289 290 290 291 291 290 289 288 287 287 287 288 288 288 288 287 286 285 283 282 281 280 282 285 287 290 289 288 287 289 288 288 288 287 289 290 290 290 289 288 288 290
289 292 292 292 292 292 291 290 290 288 290 289 288 288 289 290 290 290 290 290 288 288 288 288 288 288 288 288 288 289 290 290 290 289 290 290 289 289 289 288 288 288 288 288 288 288 288 287 286 285 284 282 281 280 281 284 284 286 289 289 287 287 288 287 286 285 286 288 287 288 288 287 287 288
295 293 293 292 293 292 291 290 290 289 291 290 289 289 289 289 289 289 289 288 288 288 288 288 288 288 288 288 288 288 289 289 289 289 290 290 290 289 289 289 288 289 288 287 288 288 288 287 286 286 285 284 282 282 283 282 282 285 287 289 288 286 287 287 286 287 286 286 287 288 288 289 290 290
295 294 294 294 294 294 294 293 291 291 290 290 289 290 289 288 288 288 288 288 288 288 288 287 288 288 288 288 287 288 289 289 289 289 290 290 289 289 289 289 289 288 287 287 287 287 287 287 287 287 287 287 286 287 287 286 286 287 286 287 289 288 286 287 286 287 287 287 288 287 287 287 286 287
295 294 295 295 294 294 293 292 292 292 291 291 290 290 289 289 289 288 288 288 287 287 287 287 287 287 287 287 287 287 287 288 289 289 289 290 289 289 289 288 289 289 288 287 287 287 287 288 289 288 289 289 289 289 287 285 283 284 285 285 287 289 289 289 287 286 286 287 288 287 286 285 285 286
296 294 295 295 295 295 295 294 293 292 291 291 290 290 289 287 286 289 288 287 287 287 287 287 287 287 287 288 287 287 287 287 288 288 288 289 290 289 289 289 289 289 288 287 287 288 290 292 290 290 290 288 288 286 284 284 283 284 285 286 286 287 288 288 288 288 287 287 287 286 285 285 285 283
295 296 295 294 295 295 294 293 292 292 291 291 290 290 288 288 286 287 287 287 287 287 287 287 287 287 288 288 287 287 287 287 287 288 288 288 289 289 289 289 289 289 289 288 289 289 289 291 291 289 288 288 287 286 284 284 285 285 285 285 285 286 287 288 287 287 287 288 287 286 286 286 285 281
296 296 295 296 295 294 294 293 292 292 292 292 289 289 287 286 286 287 286 286 287 287 287 287 287 287 287 287 287 287 287 287 287 287 288 288 288 289 288 288 288 288 289 288 288 289 289 289 289 289 288 287 287 286 285 285 285 285 285 285 286 285 285 286 286 286 286 286 287 287 287 287 286 286
296 296 295 295 294 294 293 293 292 292 292 290 288 288 287 287 286 286 285 285 286 287 286 287 287 287 287 287 287 286 286 288 287 287 288 288 288 288 288 288 288 288 288 288 288 288 288 289 289 289 289 288 288 287 286 286 285 285 285 285 285 285 285 285 284 284 284 284 285 286 286 286 286 286
Wind_Speed
6 6 9 7 7 7 6 7 7 7 7 8 8 8 9 10 10 11 12 11 12 12 11 12 13 13 14 14 13 14 13 15 17 12 12 13 12 16 17 15 13 14 17 20 21 22 22 22 22 21 24 23 21 21 21 20 21 22 22 23 23 22 20 19 19 24 24 24 23 20 20 20 20 19
6 6 7 7 7 7 6 7 6 7 8 8 8 7 7 7 8 9 11 12 10 12 11 10 12 15 14 13 13 12 13 15 16 13 13 13 13 20 21 17 17 15 16 18 19 21 22 23 23 24 25 23 24 23 21 22 22 23 23 23 25 24 22 21 20 21 24 23 21 20 19 20 19 20
6 6 7 7 7 7 7 8 8 9 9 8 8 8 8 7 8 9 9 12 9 9 12 11 12 14 16 14 14 12 11 14 17 14 12 12 17 23 19 21 18 17 16 17 19 20 21 23 23 24 25 24 22 24 25 23 24 24 24 23 24 25 23 22 23 20 22 24 23 21 21 20 20 20
6 7 7 8 8 8 8 8 8 7 8 7 7 7 7 7 7 8 8 10 12 9 11 11 13 15 14 15 14 15 13 14 18 13 14 16 18 13 13 17 19 19 19 18 18 19 20 22 24 23 20 24 26 23 24 25 24 26 26 24 24 24 24 23 24 25 22 24 25 24 22 21 21 20
6 7 8 8 8 8 7 7 7 7 8 8 7 7 7 7 7 8 9 11 13 10 9 10 11 14 15 13 14 16 15 15 14 16 15 15 13 11 11 13 19 20 18 19 19 19 20 21 21 22 25 26 26 28 26 26 27 25 24 24 24 24 25 24 24 24 24 22 24 25 23 22 21 20
6 6 6 7 6 6 6 6 7 6 7 8 8 8 8 8 8 8 9 11 12 15 12 12 11 11 13 14 13 14 15 15 15 16 15 12 14 14 13 13 12 20 24 22 21 20 21 20 21 23 23 24 25 26 24 23 23 24 25 25 25 25 25 25 25 25 24 22 22 24 24 24 23 21
5 6 6 7 6 5 6 6 5 6 7 8 9 10 8 9 9 9 9 11 13 14 14 13 14 12 11 12 14 15 13 14 14 16 14 14 13 13 14 13 10 16 21 24 23 22 19 20 21 22 22 23 23 24 24 23 24 26 26 26 25 25 25 25 25 26 26 24 22 23 24 24 25 24
6 5 5 6 6 6 6 7 7 7 8 9 9 9 8 8 9 9 9 10 10 11 14 13 14 12 13 12 13 12 13 14 13 13 14 14 15 15 13 13 14 16 24 24 23 21 19 18 20 20 21 25 25 23 24 25 25 25 26 26 26 26 26 26 25 25 26 26 24 23 23 24 26 26
5 5 5 7 6 6 6 6 6 7 9 9 9 9 9 9 8 8 9 10 10 11 13 12 11 11 12 12 12 13 14 13 13 12 14 13 14 14 13 13 14 20 23 21 21 21 20 20 20 18 20 23 24 23 25 26 26 26 26 25 26 27 27 26 26 25 25 26 25 25 24 24 26 26
5 5 4 6 6 6 6 6 6 7 9 9 9 9 9 9 9 9 9 10 10 11 11 13 13 11 13 13 10 13 14 14 15 14 13 13 12 13 14 13 12 12 13 12 14 16 18 19 20 18 18 22 23 24 25 26 26 26 26 26 27 27 27 28 27 26 25 25 25 25 25 25 25 27
4 5 5 6 5 5 6 6 6 7 9 8 9 9 8 8 9 10 10 10 10 11 12 12 12 12 10 11 14 13 15 16 14 16 16 14 12 12 13 15 13 12 15 18 19 18 18 22 19 17 18 21 23 23 23 24 26 26 27 27 27 27 27 27 27 27 26 26 26 25 24 25 26 27
5 5 5 4 5 5 5 5 5 8 9 8 9 8 7 8 9 9 9 10 10 11 11 11 12 11 13 13 12 12 14 14 14 13 15 17 17 15 13 13 15 15 15 16 16 16 16 16 18 17 17 18 21 22 22 24 27 29 28 27 27 27 27 27 28 28 27 27 26 26 25 25 25 26
5 4 6 4 4 9 8 6 11 11 9 8 9 8 8 9 9 9 8 9 9 10 10 11 11 12 13 13 14 14 14 15 16 15 15 15 15 16 17 16 14 13 16 15 15 14 13 12 11 12 12 10 15 18 23 21 28 27 25 26 26 27 27 27 27 27 27 27 27 27 26 25 25 26
3 4 4 6 12 11 9 11 13 14 14 13 10 10 10 10 8 7 9 9 10 10 11 11 12 13 13 13 12 14 15 14 13 14 13 16 17 17 17 16 12 11 13 14 16 14 10 11 14 12 12 11 9 9 12 15 18 20 24 25 25 26 27 28 28 28 28 27 27 28 27 26 26 25
2 3 4 3 7 8 7 8 12 14 15 16 17 18 17 13 8 6 9 9 9 10 11 11 12 13 15 16 15 13 14 13 13 13 13 14 14 13 15 17 14 9 11 14 16 19 12 11 13 12 12 12 11 10 10 16 22 23 22 23 24 26 27 27 28 29 29 29 28 28 28 27 26 26
3 4 3 4 3 5 5 7 8 12 15 16 18 18 20 17 11 8 7 7 9 10 11 12 12 12 13 14 13 14 15 15 15 14 13 13 13 14 15 15 16 12 11 15 16 19 14 11 13 14 13 12 11 13 15 18 21 23 24 25 25 25 26 27 27 29 29 29 29 28 28 28 27 26
4 4 4 4 3 5 10 8 9 10 11 15 17 16 16 16 15 13 11 4 6 8 10 11 12 11 13 14 14 15 17 17 17 16 14 13 13 14 15 15 16 16 11 14 16 19 19 11 13 14 15 13 12 13 16 21 23 24 24 24 25 26 26 27 28 28 29 29 30 30 29 28 28 27
5 3 4 3 3 5 5 7 11 10 10 11 11 10 10 10 13 12 12 11 11 9 8 10 12 11 10 12 15 17 16 17 17 17 17 16 16 15 15 17 18 17 11 14 14 18 18 12 12 16 15 12 13 13 17 20 21 23 23 24 25 26 27 27 28 29 29 29 30 30 30 29 29 28
5 3 3 3 4 5 5 7 11 10 10 10 9 10 10 10 11 9 8 9 8 8 8 9 11 10 10 12 14 15 15 15 15 15 18 19 18 17 17 17 16 15 14 14 13 17 14 12 14 15 14 13 13 12 15 19 18 21 22 24 24 25 26 27 28 28 28 28 29 29 29 30 29 29
3 3 3 3 3 3 5 10 14 12 10 10 11 11 10 11 10 9 10 13 12 9 9 10 11 9 11 15 15 16 16 15 15 15 15 14 14 15 13 13 12 13 10 11 12 14 15 13 13 13 11 12 13 12 12 16 19 21 23 24 26 26 26 27 27 28 29 29 29 29 29 29 29 29
3 2 2 2 2 4 7 12 14 15 14 10 11 11 11 11 10 10 10 13 15 15 16 19 17 13 17 18 20 21 23 18 18 16 15 13 13 13 13 14 12 13 10 10 10 12 15 14 12 13 12 12 12 12 12 11 15 21 22 24 25 26 26 26 27 27 28 29 29 29 29 29 29 31
3 2 6 4 2 7 9 13 14 17 12 10 11 11 12 12 12 12 11 10 11 17 16 17 13 14 16 19 20 20 21 22 19 15 16 16 15 14 11 14 13 14 12 11 8 11 14 13 12 12 13 12 12 12 12 13 12 17 19 22 23 24 25 25 25 26 27 28 28 28 29 29 27 22
4 1 4 4 9 9 11 14 15 17 14 10 10 11 11 11 12 13 14 14 14 13 11 8 9 11 15 15 15 16 22 22 20 16 16 15 14 13 11 13 12 15 13 7 9 12 14 13 14 11 11 11 10 9 11 11 9 8 10 12 16 22 23 24 24 25 26 26 26 28 28 28 25 15
5 5 5 3 10 14 14 16 17 17 18 13 11 10 9 10 14 14 14 14 14 12 10 11 11 12 14 15 15 15 16 16 17 16 14 14 14 14 14 13 13 14 13 6 7 10 10 11 11 9 9 9 7 6 6 9 8 9 9 7 6 15 20 21 20 24 23 25 26 26 27 27 25 15
6 6 5 5 10 14 16 18 19 19 18 17 10 9 8 10 15 17 12 14 15 10 12 11 11 12 14 15 15 14 15 15 15 15 14 15 14 14 14 14 12 14 14 10 11 10 13 12 12 10 10 8 9 11 11 8 7 7 8 9 10 6 9 11 9 11 17 22 23 25 25 24 27 21
6 6 6 6 10 16 19 20 20 19 18 19 10 10 14 18 20 15 11 9 10 11 11 11 11 13 14 15 15 15 15 15 16 15 14 15 16 14 12 14 15 14 13 12 16 13 12 13 12 11 11 10 11 7 10 9 5 4 7 8 8 8 9 9 9 9 9 10 11 15 18 23 24 28
6 6 7 8 14 17 19 19 20 18 18 13 10 16 17 18 22 15 7 11 10 11 11 11 12 14 14 15 16 16 16 16 16 15 15 16 16 14 13 14 12 13 14 16 14 14 12 13 10 9 11 9 10 11 11 9 3 3 5 5 5 6 7 7 8 9 8 9 10 16 18 19 23 26
6 7 8 10 16 18 19 20 18 16 13 11 17 16 16 17 15 9 10 10 11 11 11 12 13 13 13 14 15 16 16 17 17 16 16 16 14 14 13 13 13 11 9 10 8 7 10 13 12 11 12 11 10 11 11 10 4 6 6 5 4 5 6 7 7 6 6 6 6 8 9 9 11 13
6 9 14 16 17 18 19 18 13 10 10 14 14 16 15 13 9 9 10 11 11 11 12 13 13 13 13 14 14 15 15 16 15 15 15 15 14 14 14 12 8 8 8 9 7 8 8 6 10 12 11 11 12 12 11 10 4 5 7 8 4 4 5 6 6 6 6 6 7 8 10 11 11 13
13 15 17 19 17 16 13 7 5 5 8 13 14 15 14 9 9 9 10 11 11 11 12 13 13 13 13 14 14 14 14 14 15 16 16 16 15 17 15 15 15 12 11 12 10 10 12 10 10 5 9 8 5 6 11 10 4 5 5 5 6 4 3 5 5 5 6 7 7 8 8 9 11 11
9 14 14 14 18 13 12 9 9 8 10 9 9 8 8 9 9 9 9 9 10 10 11 12 12 12 13 12 12 14 15 16 15 15 15 14 14 14 12 11 14 16 15 14 12 10 11 14 13 12 7 4 4 10 9 6 5 6 5 5 5 3 4 5 5 5 5 5 4 4 4 5 5 8
10 10 12 14 6 5 4 4 4 5 6 7 7 8 8 9 9 11 12 12 10 10 11 11 12 12 13 13 12 12 14 15 14 14 14 15 14 14 14 16 17 17 16 15 14 15 10 9 12 13 13 10 12 8 9 13 10 7 7 7 7 6 4 4 5 4 5 6 6 5 5 6 7 8
9 8 8 8 6 4 4 5 5 6 7 6 7 8 8 9 9 9 8 10 10 11 12 13 12 13 14 13 11 11 13 15 15 14 14 15 14 14 13 14 15 15 14 13 15 15 14 12 6 8 12 15 15 13 10 13 11 9 9 8 8 8 6 6 5 5 7 6 5 5 4 4 4 7
6 8 7 8 5 5 4 5 5 6 6 6 6 6 8 9 9 9 9 10 10 10 11 11 11 13 13 14 13 11 12 13 14 15 14 14 14 14 15 15 15 15 16 12 14 14 14 13 11 7 4 10 17 22 15 10 9 10 10 9 9 9 8 7 7 6 5 5 7 6 5 5 4 4
6 7 7 5 4 4 5 4 5 5 5 6 6 6 6 8 8 7 9 10 8 9 10 11 10 11 13 13 13 12 12 12 13 14 13 12 13 14 14 14 15 16 17 16 15 15 14 13 11 10 11 10 13 15 25 22 11 10 10 11 9 10 10 8 8 8 8 6 7 8 7 6 6 5
8 6 6 4 4 5 4 4 5 5 5 5 5 5 7 7 6 7 9 10 9 10 10 10 10 12 12 11 12 12 13 12 11 12 14 14 14 14 13 13 13 14 15 16 15 14 13 14 12 13 14 14 17 17 17 26 27 11 9 9 9 9 8 9 10 10 9 9 7 7 7 5 6 5
6 6 6 5 4 4 5 5 5 5 6 6 5 5 6 7 7 8 10 9 9 9 9 9 10 11 12 11 12 10 12 13 11 11 13 13 13 13 13 14 14 14 15 16 14 13 13 13 14 14 15 16 15 12 11 11 24 28 12 8 10 9 8 9 11 12 10 10 10 9 7 8 7 8
4 6 5 4 3 3 4 4 5 5 5 5 5 5 6 7 7 9 10 9 9 9 9 9 9 11 11 11 11 11 11 12 11 10 10 12 13 13 13 13 13 13 13 14 14 14 13 13 15 15 15 16 16 14 13 11 15 19 29 15 9 9 9 11 12 11 11 11 11 8 10 12 10 10
3 3 4 3 3 3 3 4 4 5 5 5 5 6 6 7 7 8 9 8 9 9 9 9 9 9 11 11 10 11 10 12 13 11 10 11 12 12 12 13 13 13 12 13 13 13 13 15 14 13 13 11 11 8 8 8 10 10 21 31 16 11 11 9 9 9 10 11 11 13 12 11 14 19
2 2 3 3 3 3 3 3 4 3 4 4 5 5 6 6 7 8 8 8 8 8 8 9 10 10 10 10 10 11 10 12 12 11 10 10 11 12 12 11 12 12 12 14 14 13 13 14 14 13 12 10 5 4 6 8 8 11 15 22 32 21 11 8 9 8 9 6 8 12 10 10 12 8
2 3 2 3 2 3 3 3 3 3 4 4 4 5 5 6 6 6 6 7 6 8 8 8 9 9 10 10 9 11 11 11 11 11 9 9 9 10 13 12 11 11 12 13 13 14 15 13 14 15 12 9 7 3 9 14 14 13 14 15 21 29 27 20 13 10 8 5 9 11 11 11 11 11
1 3 2 2 2 3 3 3 4 3 4 5 4 5 5 4 4 8 7 7 8 7 7 8 8 9 9 9 8 10 10 10 10 12 11 8 9 8 10 10 10 10 11 12 12 12 10 11 12 12 11 9 10 14 14 13 12 11 11 10 11 17 25 28 27 23 15 9 7 10 11 11 13 13
2 3 2 2 2 3 3 3 4 4 4 4 4 4 4 4 4 5 5 6 7 7 7 8 8 8 8 9 7 9 9 10 10 10 12 9 8 8 7 8 9 9 8 8 8 7 8 10 11 11 11 12 12 12 14 13 11 11 11 11 11 10 13 22 28 28 27 27 23 16 9 4 8 9
3 3 1 1 1 2 3 3 3 4 4 4 3 3 3 4 4 5 4 5 6 7 7 7 8 8 8 9 7 8 9 9 9 10 10 10 8 8 7 6 7 7 7 7 7 7 7 8 7 9 12 12 11 12 13 12 12 11 11 11 11 12 13 11 14 20 25 26 28 29 31 28 21 18
3 2 1 1 1 1 1 2 3 3 3 3 3 3 3 3 3 4 4 4 5 6 6 7 8 8 7 8 7 9 9 10 9 9 9 9 8 7 7 7 6 6 6 6 7 7 6 7 7 7 9 10 10 11 11 11 11 11 12 13 14 12 11 11 15 16 16 15 20 26 24 25 24 24
Wind_Direction
17 45 36 25 27 7 11 20 6 3 9 4 356 349 347 341 331 330 327 328 326 332 349 334 331 337 335 332 331 331 324 320 318 325 331 327 319 315 301 268 249 243 244 240 238 237 231 227 224 211 217 215 210 216 220 214 206 202 199 198 200 205 208 203 199 188 191 202 201 199 201 199 195 196
20 42 44 25 30 4 15 15 1 10 12 3 352 345 343 342 336 331 322 316 319 320 330 328 322 327 328 329 326 322 314 315 325 330 323 317 316 315 313 295 271 249 242 244 238 235 235 233 228 218 218 217 212 211 215 217 208 204 204 201 200 202 204 203 201 197 191 194 198 195 199 200 199 196
24 37 42 32 27 9 20 7 7 17 13 356 348 342 347 344 338 331 321 312 314 322 318 321 322 321 322 326 318 313 318 324 326 319 314 314 314 313 309 304 287 262 243 237 239 236 230 233 232 225 217 218 216 211 213 214 210 206 204 203 202 201 202 202 201 201 197 192 193 195 197 201 201 199
36 34 39 36 27 16 24 11 9 9 358 353 342 345 342 336 332 327 318 309 306 319 315 318 318 323 323 320 320 325 323 322 319 321 318 312 310 305 303 294 288 273 256 241 236 235 229 226 228 228 221 221 219 216 212 210 212 207 203 202 202 201 201 202 200 203 203 196 192 193 196 200 203 203
39 38 40 37 28 24 22 11 2 3 358 347 339 340 338 331 331 328 322 314 312 312 320 320 322 322 320 322 327 321 321 321 325 324 314 309 309 311 314 318 318 310 286 260 246 241 237 231 225 222 217 219 218 216 211 207 207 208 204 202 202 202 201 202 201 202 203 201 195 193 193 198 202 204
27 38 47 37 41 25 17 18 3 358 351 346 341 341 337 331 329 329 325 322 319 318 324 320 321 315 325 317 323 319 320 324 322 317 317 318 321 321 314 309 309 304 301 293 262 244 240 236 228 226 222 219 220 220 216 211 205 206 205 203 202 203 203 201 202 198 202 199 201 195 192 192 198 202
32 30 43 43 24 25 19 13 354 356 354 347 343 336 333 329 328 334 336 328 321 319 319 320 319 322 320 316 317 318 317 316 315 316 320 323 318 311 309 303 303 314 330 331 308 270 246 236 232 227 223 226 220 220 218 213 205 206 204 203 202 202 203 203 202 200 198 198 198 199 193 191 193 198
34 26 37 42 28 26 16 1 356 355 353 345 340 332 330 331 335 337 336 327 319 319 318 322 321 320 318 318 318 316 312 315 318 318 317 316 312 312 314 326 324 321 320 319 319 302 276 258 242 232 221 221 222 214 217 215 211 208 206 202 201 201 202 202 202 201 200 199 197 198 197 193 195 196
24 20 39 48 27 20 15 354 353 354 348 343 337 333 335 336 339 334 328 324 319 318 316 316 317 318 316 316 314 317 318 318 315 315 313 315 315 315 324 322 316 315 314 312 313 313 299 278 265 245 233 225 223 217 215 216 213 210 207 203 202 201 201 201 201 200 200 201 197 196 198 196 196 199
34 5 26 53 34 15 10 354 352 358 345 341 338 336 340 338 334 327 324 323 320 318 316 320 321 322 320 318 315 320 321 320 317 315 313 311 314 319 314 311 311 311 311 313 315 316 313 302 277 258 234 234 226 220 217 214 213 211 209 207 204 203 201 200 200 199 197 200 200 197 197 197 196 199
38 18 12 47 28 19 1 9 11 354 349 341 338 337 332 328 327 327 328 326 325 325 323 321 317 315 317 319 318 325 325 319 319 318 317 313 315 310 312 310 311 312 309 305 301 299 299 300 297 266 241 233 236 227 219 217 217 211 209 209 206 204 203 202 200 199 197 198 200 199 198 197 196 197
33 26 7 43 27 29 15 40 12 3 347 340 334 329 319 320 319 323 327 331 331 327 323 320 321 324 324 322 319 320 322 321 319 322 318 314 316 314 311 311 311 311 308 305 306 305 305 304 296 278 261 243 234 233 229 222 220 213 208 207 206 205 203 203 202 200 199 197 197 199 199 198 197 197
40 20 9 18 52 18 33 54 23 0 346 340 333 321 318 312 315 316 323 329 324 324 323 322 326 325 324 325 324 325 326 324 320 318 315 309 309 310 308 305 301 299 302 301 300 298 300 299 309 317 306 272 238 231 228 229 227 219 212 208 205 205 204 203 203 201 200 199 197 197 199 199 198 198
58 33 31 359 7 21 16 31 15 354 344 340 328 318 315 311 306 308 321 324 324 323 326 332 331 327 325 323 322 319 317 315 313 312 314 311 312 307 300 297 294 298 297 298 295 294 302 308 304 299 295 304 272 251 232 226 229 224 216 210 206 207 206 205 202 202 201 199 198 197 198 198 198 198
43 42 39 9 4 5 14 21 11 352 345 339 335 325 314 305 291 302 320 322 332 337 334 330 326 320 317 321 322 316 315 314 312 309 305 301 303 302 303 301 300 286 296 298 299 293 293 293 293 295 292 288 294 283 247 234 227 224 214 214 211 207 208 207 204 202 201 200 200 198 197 198 199 198
55 41 20 14 13 359 6 34 4 351 342 339 333 325 315 307 295 301 311 327 345 340 331 323 320 317 319 321 323 320 319 317 313 308 302 299 299 297 294 291 290 297 301 293 292 289 290 291 286 286 283 285 285 281 273 241 229 224 218 212 213 209 208 207 207 205 202 200 199 199 198 197 198 198
55 46 10 10 360 3 358 25 1 349 341 336 330 320 321 325 331 333 330 352 343 324 320 315 312 321 326 327 326 322 316 314 308 308 304 301 296 290 287 285 286 287 295 290 285 284 286 287 284 282 280 281 278 276 270 253 234 225 221 216 210 210 210 208 206 206 205 202 199 199 198 197 197 197
80 43 22 360 354 8 5 22 357 344 339 333 326 329 331 326 323 329 326 324 315 313 310 307 306 313 331 323 318 314 311 309 306 306 303 302 296 292 284 284 283 282 279 275 280 279 278 280 278 274 279 276 273 266 263 255 233 224 217 218 214 210 210 209 207 206 205 204 201 199 198 198 197 197
85 39 27 1 22 10 12 2 345 340 334 327 325 328 331 324 314 315 321 316 312 307 305 300 296 300 315 316 310 308 305 300 296 295 296 297 294 289 283 278 273 271 263 261 258 267 274 275 271 271 275 276 271 267 263 256 231 218 214 214 215 213 211 209 208 207 206 205 204 201 199 197 197 196
76 41 34 41 41 13 13 348 340 334 334 328 328 328 326 321 312 313 317 309 300 290 292 295 290 290 308 311 307 305 304 302 300 296 294 292 285 284 284 282 284 273 265 249 252 263 271 269 268 273 266 267 269 266 259 252 236 219 212 210 211 212 212 211 208 206 205 205 205 203 201 199 196 196
74 67 66 55 62 11 7 344 338 332 339 329 328 325 322 318 311 315 315 311 305 302 299 295 283 279 310 310 306 305 303 303 305 305 301 294 294 289 286 284 284 281 278 260 245 261 268 267 267 271 267 263 264 263 262 259 235 220 212 210 211 211 211 211 209 207 206 205 204 204 202 201 198 195
96 78 76 92 44 17 355 338 334 331 334 330 324 322 321 316 313 314 316 316 317 312 303 294 290 314 314 310 308 307 309 310 310 307 304 302 300 291 281 286 288 285 277 269 262 267 266 274 265 266 268 267 256 256 255 251 235 213 211 210 209 210 211 209 209 209 209 207 204 204 203 201 199 196
20 134 136 76 35 14 340 334 332 327 329 324 320 319 315 310 312 315 318 321 316 315 311 301 318 321 319 316 314 313 311 310 309 308 302 300 296 290 281 279 284 288 276 261 241 248 261 259 258 257 271 273 272 249 241 237 216 188 199 210 212 210 208 210 209 210 211 209 208 205 203 201 194 193
349 353 351 358 15 350 333 330 328 325 322 321 314 313 309 307 313 316 320 314 312 306 314 324 328 325 321 318 316 317 317 315 312 308 303 301 299 294 292 283 277 275 281 284 284 277 277 273 279 275 270 289 293 296 265 225 202 189 192 182 177 214 211 212 213 213 210 209 209 207 203 200 189 191
331 342 351 342 336 330 329 325 323 318 315 311 310 302 298 300 302 308 315 310 307 322 327 327 331 329 324 321 320 319 321 319 317 312 306 306 304 299 299 293 280 276 275 271 252 248 255 260 270 275 272 272 275 283 288 271 210 171 178 176 198 187 191 209 209 213 216 214 211 207 204 200 192 193
324 341 340 337 323 325 322 319 316 313 309 307 306 293 290 300 305 312 304 309 327 328 328 329 334 331 326 324 323 324 325 323 318 315 312 314 314 305 296 295 293 289 281 265 240 237 243 254 243 258 263 263 269 269 283 265 254 164 157 180 189 177 182 192 199 208 198 201 211 213 209 203 196 199
329 347 328 321 318 317 314 312 310 306 306 306 308 309 313 314 316 312 328 334 331 332 332 335 336 332 328 327 327 329 330 327 325 321 320 320 318 311 308 301 287 275 271 277 258 242 237 251 238 241 258 265 279 283 276 260 238 135 156 151 146 169 171 179 189 196 193 189 203 201 200 202 205 207
345 327 319 313 310 309 306 305 303 300 300 325 329 329 321 325 324 331 337 338 339 336 339 338 335 333 329 328 329 332 335 332 328 327 327 329 320 320 320 313 300 291 298 311 316 306 247 235 243 233 242 250 255 262 277 268 207 156 148 137 160 158 153 174 184 187 185 179 174 176 181 193 200 203
329 318 312 310 309 307 303 295 290 297 330 331 327 326 326 330 335 336 343 341 341 342 344 340 333 331 333 332 327 327 332 330 328 334 335 333 332 331 335 331 323 325 322 332 341 356 335 288 241 230 227 234 238 247 251 256 196 165 157 142 149 155 149 161 164 165 169 161 168 166 183 187 187 194
335 329 321 311 305 304 297 306 334 334 336 330 329 331 337 343 339 344 343 344 343 345 342 337 333 330 331 333 333 328 330 340 341 344 342 338 341 345 342 344 352 353 352 353 353 14 15 6 349 273 231 214 244 279 244 206 189 142 129 129 114 76 109 139 141 143 145 165 169 179 186 187 188 180
336 322 314 307 295 275 288 326 347 344 340 333 338 338 344 341 341 343 348 347 343 343 342 335 331 329 331 328 333 342 343 345 344 350 346 344 341 340 343 342 3 0 356 358 1 1 28 23 20 15 34 17 350 17 354 69 86 85 74 83 95 127 157 117 136 144 158 142 127 120 122 152 161 180
319 312 307 300 299 340 338 348 344 350 342 335 337 341 344 342 339 343 345 351 345 347 341 334 329 331 334 335 340 343 346 345 345 350 353 353 348 349 346 9 10 3 3 1 1 2 13 33 33 33 42 33 36 344 33 49 39 33 59 49 60 45 57 118 118 113 118 112 112 133 150 158 166 173
310 307 310 305 315 338 345 352 345 344 342 337 339 340 347 342 340 343 352 353 349 347 343 338 335 334 337 334 339 345 347 350 348 350 354 358 358 350 1 13 9 5 355 0 6 3 2 2 25 43 44 51 45 37 28 42 25 26 35 35 49 48 31 32 66 101 109 98 99 107 111 126 145 174
298 300 310 291 315 330 348 347 345 342 336 339 340 337 347 341 341 341 350 354 347 350 340 336 335 338 337 335 342 345 349 347 351 353 356 357 358 2 4 7 10 7 8 3 11 8 1 3 357 353 8 56 56 48 37 37 17 23 34 32 37 43 28 34 41 46 69 103 118 98 94 79 80 122
310 305 293 293 328 330 344 346 347 342 335 338 339 342 346 340 338 340 352 346 349 351 340 336 336 337 338 337 339 341 348 350 351 353 357 358 1 8 6 9 7 8 9 11 13 9 8 7 5 8 27 30 47 45 40 31 15 8 27 34 27 37 34 29 39 41 57 64 86 98 71 53 40 42
293 290 285 317 328 337 347 338 355 339 339 340 343 348 348 342 340 349 352 342 349 348 343 338 339 341 337 337 339 341 348 350 351 356 359 2 5 8 10 13 9 8 11 14 12 8 11 17 16 27 36 34 44 35 23 17 26 6 20 28 21 26 31 38 46 39 46 51 42 79 77 74 44 34
280 282 295 322 331 348 349 346 350 337 343 345 344 358 349 342 344 353 348 339 348 347 341 338 340 339 338 336 341 340 349 353 354 356 4 4 6 8 12 12 12 10 16 17 12 10 11 21 25 32 38 44 46 46 31 3 23 24 16 30 32 24 30 48 54 53 37 56 53 50 73 73 50 30
253 272 309 315 340 352 343 343 340 341 343 349 350 353 349 345 346 349 344 343 347 346 343 344 341 341 338 338 343 344 348 354 353 358 3 8 8 11 14 16 14 16 16 16 16 15 14 20 29 29 36 45 50 41 33 17 33 21 22 25 37 30 24 57 57 63 58 51 62 52 66 64 56 65
227 322 311 323 338 351 343 343 341 345 343 350 353 355 346 348 346 347 344 342 346 347 342 342 345 341 340 340 343 344 347 355 356 358 4 10 13 11 13 16 19 17 17 19 19 19 19 27 25 26 31 31 36 39 35 30 30 29 27 29 34 35 25 41 62 58 68 77 79 77 72 80 73 67
3 309 303 326 341 346 339 351 346 343 337 347 358 352 347 347 348 347 340 341 347 347 342 341 341 342 344 342 345 348 344 354 357 355 1 11 14 14 15 16 21 18 21 22 22 20 24 27 26 26 28 27 33 29 70 68 65 46 42 29 33 40 28 30 39 55 56 44 85 84 78 66 68 38
353 305 320 324 343 341 340 354 342 337 338 347 0 349 346 346 347 346 334 338 349 346 344 342 343 343 343 342 349 352 347 345 355 355 354 6 16 19 16 15 23 20 26 27 26 26 28 24 17 17 29 33 19 9 55 48 41 38 39 36 30 38 42 44 44 40 41 22 66 76 75 74 83 70
314 295 302 320 353 339 342 357 340 347 339 343 355 347 341 340 339 339 335 340 347 346 342 345 344 343 343 342 351 354 350 344 349 355 352 357 11 14 19 22 23 20 28 30 29 32 29 28 26 26 24 27 27 42 45 43 43 37 38 40 40 37 42 48 50 52 53 38 52 74 81 79 76 70
276 285 306 308 352 338 343 6 340 335 329 335 346 338 338 331 337 342 341 345 346 347 343 343 342 342 342 342 351 355 350 347 346 351 353 350 4 11 14 20 22 23 28 31 30 27 27 29 30 30 32 34 32 40 49 46 44 45 42 41 40 44 46 48 52 51 48 51 56 59 44 67 110 95
273 268 269 302 318 347 336 358 334 319 330 330 321 324 326 329 336 337 340 345 345 342 339 340 339 341 343 343 350 357 352 348 345 348 350 350 353 11 8 9 17 19 21 25 25 23 21 26 30 32 40 39 34 40 43 44 46 43 47 47 45 44 44 45 53 54 53 46 53 62 65 66 67 81
253 259 285 295 326 310 325 318 299 302 312 316 315 310 307 316 334 334 340 347 345 337 337 341 338 337 341 344 353 1 348 347 347 348 347 349 351 353 9 7 11 12 14 16 24 21 20 26 26 32 48 49 45 50 47 48 48 46 43 46 48 48 45 44 56 59 57 55 43 60 66 72 76 78